Regional Weather Roundup
Issued by NWS

Home | Current Version | Previous Version | Text Only | Print | Product List | Glossary On
Versions: 1 2 3 4 5 6 7 8 9 10 11 12 13 14 15 16 17 18 19 20 21 22 23 24 25 26 27 28 29 30 31 32 33 34 35 36 37 38 39 40 41 42 43 44 45 46 47 48 49 50
504
ASUS43 KTOP 281408
RWRKS

WEATHER ROUNDUP FOR KANSAS
NATIONAL WEATHER SERVICE GOODLAND KS
900 AM CDT THU JUL 28 2016

NOTE:  "FAIR" INDICATES FEW OR NO CLOUDS BELOW 12,000 FEET WITH NO
SIGNIFICANT WEATHER AND/OR OBSTRUCTIONS TO VISIBILITY.

KSZ001>006-013>018-027>032-041>047-281500-
NORTHWEST KANSAS

CITY           SKY/WX    TMP DP  RH WIND       PRES   REMARKS
GOODLAND       SUNNY     72  56  57 S10       30.09F
HAYS           CLOUDY    73  59  60 NW3       30.06F
HILL CITY      CLOUDY    72  67  84 E3        30.07F
RUSSELL        CLOUDY    75  66  73 NW7       30.05F
$$

KSZ061>065-074>080-084>089-281500-
SOUTHWEST KANSAS

CITY           SKY/WX    TMP DP  RH WIND       PRES   REMARKS
DODGE CITY     MOSUNNY   74  64  71 N8        30.08F
ELKHART          N/A     69  60  73 NE8         N/A
GARDEN CITY    MOSUNNY   69  62  78 E8        30.07F
GREAT BEND     MOSUNNY   72  61  68 NW16G22   30.05S
LIBERAL        MOSUNNY   72  61  68 NE8       30.14F
PRATT          CLOUDY    74  58  56 N6        30.04R
$$

KSZ066>073-081>083-090>101-281500-
SOUTHEAST KANSAS

CITY           SKY/WX    TMP DP  RH WIND       PRES   REMARKS
CHANUTE        PTSUNNY   80  75  84 N8        29.99R
COFFEYVILLE    MOSUNNY   82  76  81 N6        29.99R
HUTCHINSON     CLOUDY    81  70  69 N9        30.00F
MEDICINE LODGE   N/A     84  56  38 VRB3G16   29.99R
NEWTON         MOSUNNY   79  74  84 E7        30.01F
PARSONS        MOSUNNY   82  75  79 NW7       30.00R
WICHITA INTL   PTSUNNY   83  68  60 N6        29.99F
WICHITA JABRA  PTSUNNY   82  73  74 NW7       30.00F
WICHITA MCCONL MOSUNNY   82  70  68 VRB5      29.99F
WINFIELD       MOSUNNY   82  71  69 NW3       30.01F
$$

KSZ007>012-019>026-033>040-048>060-102>105-281500-
NORTHEAST KANSAS

CITY           SKY/WX    TMP DP  RH WIND       PRES   REMARKS
CONCORDIA      MOSUNNY   73  64  73 N6        30.04F
EMPORIA        PTSUNNY   79  72  79 NW3       30.01S
LAWRENCE       SUNNY     78  72  81 NW7       29.99R
MANHATTAN      MOSUNNY   78  72  81 NE6       30.01F
MARYSVILLE     SUNNY     73  68  83 N6        30.02F
OLATHE IND     SUNNY     77  73  87 NW8       29.99S
OLATHE EXE     SUNNY     78  71  79 N7        29.99R
SALINA         PTSUNNY   79  70  74 N7        30.02S
TOPEKA BILLARD MOSUNNY   78  71  79 CALM      30.00S
TOPEKA FORBES  MOSUNNY   80  72  76 N8        30.00S
$$




USA.gov is the U.S. government's official web portal to all federal, state and local government web resources and services.